CZ-6A DEB

Satellite information

Favourite Embed

Satellite Type and Status

DEBRISIN ORBIT

Key statistics

Satellite CZ-6A DEB at a glance.

Uptime

907

Days in orbit

Revolutions

≈ 14.4

Per day

Orbit

SSO

Sun Synchronous Orbit

Inclination

98.6

Latest

Satellite identification and parameters

Extended collection of information and parameters for CZ-6A DEB.

Object identification

Identified? True

Debris? True

Object name: CZ-6A DEB

International designator: 2022-151DS

Object number (NORAD): 54394

Object ID (CCSDS): 54394

Country: PEOPLES REPUBLIC OF CHINA (PRC)

Current information (Y/N): Y

RCS size: LARGE

Orbital parameters

Period: 99.92 minutes

Inclination: 98.6032 deg

SMA: 7132.812 km

Apoapsis: 829.312 km

Periapsis: 680.042 km

RAAN: 149.78 deg

Eccentricy: 0.0104636

Argument of periapsis: 128.3676 deg

Mean anomaly: 232.6971 deg

Mean motion: 14.41157939 rev/day

Mean motion (dot): 0.00002872 rev/day2

B* drag term: 0.00084802 1/REarth

Two-line elements (TLE)

Creation date: May 6, 2025, 3:54 a.m.

Reference frame: TEME

Reference center: EARTH

Epoch: May 5, 2025, 6:37 p.m. UTC

TLE line 0: 0 CZ-6A DEB

TLE line 1: 1 54394U 22151DS 25125.77607971 .00002872 00000-0 84802-3 0 9999

TLE line 2: 2 54394 98.6032 149.7800 0104636 128.3676 232.6971 14.41157939129889

Live tracking on map

Real-time ground track for satellite CZ-6A DEB.

In-orbit conjunctions

A list of the most updated potential collisions computed for object CZ-6A DEB.

Target Orbit TCA Probability of collision Miss distance Type
IRIDIUM 33 DEB LEO 2025-02-10 13:11:14 0.001282699 39.0 (m) DEBRIS
SPOT 4 SSO 2024-11-07 11:27:37 0.0005535772 517.0 (m) PAYLOAD

Associated space launch

Chinese satellite reported for atmospheric/ocean/environmental/spatial parameter research purposes, details TBD.

CZ-6A DEB was lifted into orbit during the mission ‘Long March 6A | Yunhai 3’, on board a Long March 6A space rocket.

The launch took place on Nov. 11, 2022, 10:52 p.m. from Launch Complex 9A.

For more information about the launch, click the button.

Launch to space Long March 6A | Yunhai 3
Long March 6A | Yunhai 3

Agency: N/A

Status: Launch Successful

Launch date: Nov. 11, 2022, 10:52 p.m. UTC

Rocket: Long March 6A

Launch pad: Launch Complex 9A

Location: Taiyuan Satellite Launch Center, People's Republic of China

...

Latest news about this satellite

There are no fresh news available about this satellite. Check back as we update our databases every day.


Newsletter sign-up

Weekly statistics, charts and insights to help you stay on top of the space industry.